Regional Weather Roundup
Issued by NWS Sioux Falls, SD

Home | Current Version | Previous Version | Text Only | Print | Product List | Glossary On
Versions: 1 2 3 4 5 6 7 8 9 10 11 12 13 14 15 16 17 18 19 20 21 22 23 24 25 26 27 28 29 30 31 32 33 34 35 36 37 38 39 40 41 42 43 44 45 46 47 48 49 50
000
ASUS43 KFSD 180010
RWRFSD

WEATHER ROUNDUP FOR SE SOUTH DAKOTA/SW MINNESOTA/NW IOWA
NATIONAL WEATHER SERVICE SIOUX FALLS SD
600 PM CST SUN DEC 17 2017

NOTE: "FAIR" INDICATES FEW OR NO CLOUDS BELOW 12,000 FEET WITH NO
SIGNIFICANT WEATHER AND OR OBSTRUCTIONS TO VISIBILITY.


SDZ038>040-050-052>070-180100-
SOUTHEAST SOUTH DAKOTA

CITY           SKY/WX    TMP DP  RH WIND       PRES   REMARKS
BROOKINGS      CLOUDY    35  29  78 SW3       29.92S
CHAMBERLAIN    CLOUDY    37  32  84 SE6       29.91S
6HR MIN TEMP:  37; 6HR MAX TEMP:  42;

HURON          CLOUDY    38  32  79 MISG      29.92R
6HR MIN TEMP:  37; 6HR MAX TEMP:  42;

MADISON        CLOUDY    32  28  86 SW6       29.92S WCI  26
MITCHELL       CLOUDY    38  29  70 S6        29.94S
6HR MIN TEMP:  36; 6HR MAX TEMP:  42;

SIOUX FALLS    PTCLDY    30  27  88 SW3       29.95R
6HR MIN TEMP:  28; 6HR MAX TEMP:  40;

WINNER         CLOUDY    41  30  65 S8        29.90F
YANKTON        CLEAR     34  27  75 SW5       29.97R WCI  30
$$

MNZ071-072-080-081-089-090-097-098-180100-
SOUTHWEST MINNESOTA

CITY           SKY/WX    TMP DP  RH WIND       PRES   REMARKS
FAIRMONT       PTCLDY    27  22  81 E3        29.96F
JACKSON        CLOUDY    25  21  86 CALM      29.96R
LUVERNE        CLEAR     27  21  80 CALM      29.95S
MARSHALL       CLOUDY    30  26  85 SE5       29.95S WCI  25
6HR MIN TEMP:  30; 6HR MAX TEMP:  34;

MONTEVIDEO     CLOUDY    28  25  86 CALM      29.95S
PIPESTONE      CLOUDY    32  27  80 CALM      29.92S
REDWOOD FALLS  CLOUDY    29  24  82 SE5       29.95F WCI  24
WINDOM           N/A     25  14  63 W3        29.95R HAZE
WORTHINGTON    CLOUDY    23  22  96 CALM      29.96R FOG
$$

IAZ001>003-012>014-020>022-031-032-NEZ013-014-SDZ071-180100-
NORTHWEST IOWA

CITY           SKY/WX    TMP DP  RH WIND       PRES   REMARKS
CHEROKEE       CLOUDY    32  28  85 CALM      29.97R
DENISON        CLOUDY    30  27  86 S3        30.00S
ESTHERVILLE    CLOUDY    28  25  88 SE3       29.95R
LE MARS        CLOUDY    32  28  86 CALM      29.97S
ORANGE CITY    CLOUDY    32  28  86 CALM      29.97R
SHELDON        PTCLDY    25  25 100 CALM      29.95R FOG
SIOUX CITY     CLOUDY    32  26  78 NW3       29.99R
6HR MIN TEMP:  32; 6HR MAX TEMP:  35;

SPENCER        CLOUDY    30  26  85 S3        29.96R
6HR MIN TEMP:  30; 6HR MAX TEMP:  34;

STORM LAKE     CLOUDY    30  27  86 N3        29.96R
$$

ABBREVIATIONS USED IN REMARKS
   TC - TEMPERATURE IN CELSIUS
  WCI - WIND CHILL INDEX
   HX - HEAT INDEX
  VSB - VISIBILITY




USA.gov is the U.S. government's official web portal to all federal, state and local government web resources and services.